YAOGAN 3

导读

YAOGAN 3(遥感三号)是中国于2007年11月11日发射的遥感卫星,作为中国早期遥感系列卫星的重要成员,它主要承担对地观测任务,可获取空间遥感信息,服务于国土资源勘查、环境监测、地理测绘等多个领域,为中国国民经济建设和空间遥感技术发展提供了重要数据支撑,也推动了中国遥感卫星体系的逐步完善。

基本信息
目录编号:
32289
目录名称:
YAOGAN 3
国际标识:
2007-055A
轨道中心:
EARTH
卫星名称:
YAOGAN 3
卫星全名:
--
卫星状态:
在轨 (已飞行6879 天)
发射日期:
2007-11-11 UTC
国别 :
中国 (CN)
星等 :
--
该卫星已列入 空间交会检测服务 Space Conjunction Data Service (SCDS) ,当前飞行风险评估等级: 无高风险
轨道信息
数据来源 国际轨道数据 AOE轨道数据
星历时间 2026-09-11T07:10:57+0800
9小时前
查看轨道信息
2026-09-06T23:00:00+0800
4天前
查看轨道信息
半长轴 6972.801km 6972.843km
偏心率 0.0001713 0.0001506
轨道倾角 97.812° 97.813°
近地点辐角 94.207° 93.454°
升交点赤经 282.994° 278.699°
平近点角 265.934° 19.952°
近地点 593.469km 593.655km
远地点 595.859km 595.757km
周期 96.576分钟 96.577分钟
每日圈数 14.91049 14.910356
详细信息
使用方式:
暂无
2D轨道图
3D轨道图
轨道高度分析图
轨道倾角分析图
轨道综合分析图
查看轨道综合分析图
交会数据列表
事件ID 空间交会对象 最接近时刻(TCA) 交会距离 交会风险概率(CRP) 交会风险指数(CRI) 操作
CDM_260912-190803-228906-993526
YAOGAN 3 (32289)
KOSTKA (69935)
2026-09-12T
19:08:32+0000
0.687 km
远距离
8.526711E-5 中风险 0.74
CDM_260913-111403-228906-993423
YAOGAN 3 (32289)
2026-09-13T
11:14:53+0000
1.342 km
极远距离
9.189001E-6 低风险 0.54
与全量物体交会距离演化趋势
与全量物体交会风险概率演化趋势